Regional Weather Roundup
Issued by NWS

Home | Current Version | Previous Version | Text Only | Print | Product List | Glossary On
Versions: 1 2 3 4 5 6 7 8 9 10 11 12 13 14 15 16 17 18 19 20 21 22 23 24 25 26 27 28 29 30 31 32 33 34 35 36 37 38 39 40 41 42 43 44 45 46 47 48 49 50
000
ASUS43 KLMK 261610
RWRKY
KENTUCKY REGIONAL WEATHER ROUNDUP
NATIONAL WEATHER SERVICE LOUISVILLE KY
1200 PM EDT SUN APR 26 2015

NOTE "FAIR" INDICATES FEW OR NO CLOUDS BELOW 12,000 FEET
WITH NO SIGNIFICANT WEATHER AND/OR OBSTRUCTIONS TO VISIBILITY.

KYZ001>023-026-027-061>063-070>075-261700-
WESTERN AND SOUTH CENTRAL KENTUCKY

CITY           SKY/WX    TMP DP  RH WIND       PRES   REMARKS
PADUCAH        CLOUDY    51  44  77 N13       29.89R
HENDERSON      CLOUDY    52  37  58 NE8       29.89R
OWENSBORO      SUNNY     54  38  54 N6        29.88R
HOPKINSVILLE   CLOUDY    49  47  91 N10       29.86R
BOWLING GREEN  CLOUDY    51  44  77 N7        29.84R
GLASGOW        CLOUDY    49  44  81 NE7       29.83R
$$

KYZ024-025-028>034-038-045-046-053-261700-
NORTH CENTRAL KENTUCKY

CITY           SKY/WX    TMP DP  RH WIND       PRES   REMARKS
LOUISVILLE/SDF MOSUNNY   57  35  43 N9        29.84S
LOUISVILLE/LOU SUNNY     56  35  45 NE10      29.85R
FORT KNOX      SUNNY     52  37  55 VRB3      29.83R
$$

KYZ035>037-039>044-047>052-055>060-089>105-261700-
NORTHEAST KENTUCKY

CITY           SKY/WX    TMP DP  RH WIND       PRES   REMARKS
LEXINGTON      CLOUDY    50  40  68 N8        29.82R
COVINGTON      MOSUNNY   53  36  52 N12       29.85R
FRANKFORT      SUNNY     54  37  52 N8        29.82R
$$

KYZ054-064>069-076>088-106>120-261700-
SOUTHEAST KENTUCKY

CITY           SKY/WX    TMP DP  RH WIND       PRES   REMARKS
JACKSON        CLOUDY    51  42  71 CALM      29.78R
LONDON         CLOUDY    50  42  74 N8        29.79R
SOMERSET       CLOUDY    46  45  93 NE5       29.83R
MIDDLESBORO    CLOUDY    51  48  90 N8        29.76R
MONTICELLO     CLOUDY    49  47  93 NE7       29.83R
$$




USA.gov is the U.S. government's official web portal to all federal, state and local government web resources and services.